Regional Weather Roundup
Issued by NWS San Angelo, TX

Home | Current Version | Previous Version | Text Only | Print | Product List | Glossary On
Versions: 1 2 3 4 5 6 7 8 9 10 11 12 13 14 15 16 17 18 19 20 21 22 23 24 25 26 27 28 29 30 31 32 33 34 35 36 37 38 39 40 41 42 43 44 45 46 47 48 49 50
000
ASUS44 KSJT 291058
RWRSJT
WEST CENTRAL TEXAS REGIONAL WEATHER ROUNDUP
NATIONAL WEATHER SERVICE SAN ANGELO TX
600 AM CDT THU JUN 29 2017

NOTE: "FAIR" INDICATES FEW OR NO CLOUDS BELOW 12,000 FEET WITH NO
SIGNIFICANT WEATHER AND/OR OBSTRUCTIONS TO VISIBILITY.

TXZ049-054-064>066-071>073-076>078-098-099-113-114-127-128-139-140-
154-155-168>170-291200
...LOCATIONS ACROSS WEST CENTRAL TEXAS...

CITY           SKY/WX    TMP DP  RH WIND       PRES   REMARKS
SAN ANGELO     CLEAR     73  65  75 S7        29.85S
ABILENE        PTCLDY    72  67  84 S9        29.85S
DYESS AFB      NOT AVBL
JUNCTION       MOCLDY    75  70  84 S3        29.89R
SWEETWATER     NOT AVBL
BROWNWOOD      NOT AVBL
COLEMAN        NOT AVBL
SONORA         NOT AVBL
OZONA          NOT AVBL
BRADY          NOT AVBL
$$

TEXAS PANHANDLE/OKLAHOMA PANHANDLE

CITY           SKY/WX    TMP DP  RH WIND       PRES   REMARKS
AMARILLO       CLEAR     70  59  68 SW16      29.82R
BORGER         CLEAR     76  59  55 SW12G24   29.77R
CANADIAN       NOT AVBL
DALHART        CLEAR     65  59  81 W9        29.83R
DUMAS          NOT AVBL
GUYMON         NOT AVBL
HEREFORD       NOT AVBL
PAMPA          NOT AVBL
PERRYTON       NOT AVBL
$$

SOUTHERN PANHANDLE/SOUTH PLAINS/ROLLING PLAINS

CITY           SKY/WX    TMP DP  RH WIND       PRES   REMARKS
LUBBOCK        PTCLDY    73  62  68 S12       29.86R
SNYDER         NOT AVBL
CHILDRESS      PTCLDY    76  63  64 S15G23    29.77R
SEMINOLE       NOT AVBL
$$

PERMIAN BASIN

CITY           SKY/WX    TMP DP  RH WIND       PRES   REMARKS
MIDLAND        CLEAR     75  63  66 S9        29.86R
ODESSA         CLEAR     75  63  66 S13       29.86S
WINK           CLEAR     73  62  68 SE12      29.82R
$$

FAR WEST/SOUTHWEST MOUNTAINS/TRANS PECOS

CITY           SKY/WX    TMP DP  RH WIND       PRES   REMARKS
ALPINE         NOT AVBL
DRYDEN         NOT AVBL
EL PASO        PTCLDY    86  36  16 NW17G23   29.93R
FORT STOCKTON  CLEAR     73  62  68 S12       29.86R
GUADALUPE PASS NOT AVBL
MARFA          NOT AVBL
PECOS          NOT AVBL
$$

DALLAS/FORT WORTH METROPLEX

CITY           SKY/WX    TMP DP  RH WIND       PRES   REMARKS
DFW AIRPORT    PTCLDY    76  72  87 S16       29.84R
FTW MEACHAM    CLOUDY    76  73  91 S13       29.85R
DAL-EXECUTIVE  CLEAR     74  71  91 SE8       29.87R
GRAND PRAIRIE  NOT AVBL
ADDISON        NOT AVBL
MESQUITE       NOT AVBL
LANCASTER      NOT AVBL
$$

NORTH CENTRAL TEXAS

CITY           SKY/WX    TMP DP  RH WIND       PRES   REMARKS
SHRMAN/DENISON NOT AVBL
GAINESVILLE    NOT AVBL
BRIDGEPORT     NOT AVBL
DENTON         MOCLDY    74  72  93 S8        29.86R
WAXAHACHIE     NOT AVBL
GRANBURY       NOT AVBL
$$

WESTERN NORTH TEXAS

CITY           SKY/WX    TMP DP  RH WIND       PRES   REMARKS
WICHITA FALLS  CLEAR     72  68  87 S9        29.82R
VERNON         NOT AVBL
BRECKENRIDGE   NOT AVBL
COMANCHE       NOT AVBL
$$

CENTRAL AND SOUTH CENTRAL TEXAS

CITY           SKY/WX    TMP DP  RH WIND       PRES   REMARKS
AUSTIN/BERGSTM CLOUDY    76  75  97 S5        29.86S
WACO           CLOUDY    75  73  93 S10       29.87R
HILLSBORO      NOT AVBL
TEMPLE         CLOUDY    74  73  97 SE8       29.88R
KILLEEN-GRAY   NOT AVBL
FORT HOOD      PTCLDY    72  70  94 SE6       29.85R
GEORGETOWN     NOT AVBL
LAGO VISTA     NOT AVBL
SAN MARCOS     NOT AVBL
NEW BRAUNFELS  CLOUDY    75  73  93 CALM      29.85S
RANDOLPH AFB   NOT AVBL
SAN ANTONIO    CLEAR     73  71  93 CALM      29.87R
STINSON        CLEAR     75  72  90 CALM      29.84R
PLEASANTON     NOT AVBL
LA GRANGE      NOT AVBL
GIDDINGS       NOT AVBL
$$

EAST TEXAS

CITY           SKY/WX    TMP DP  RH WIND       PRES   REMARKS
PARIS          NOT AVBL
CLARKSVILLE    NOT AVBL
TYLER          CLEAR     72  72 100 SE6       29.89S
LONGVIEW       CLOUDY    74  73  97 S6        29.90R
PALESTINE      NOT AVBL
NACOGDOCHES    NOT AVBL
$$

TEXAS HILL COUNTRY AND EDWARDS PLATEAU

CITY           SKY/WX    TMP DP  RH WIND       PRES   REMARKS
LLANO          NOT AVBL
HORSESHOE BAY  NOT AVBL
KERRVILLE      NOT AVBL
FREDERICKSBRG  NOT AVBL
ROCKSPRINGS    NOT AVBL
HONDO          CLEAR     72  71  97 NE5       29.86S
UVALDE         NOT AVBL
DEL RIO        CLEAR     76  71  85 E8        29.82R
$$

SOUTHEAST TEXAS

CITY           SKY/WX    TMP DP  RH WIND       PRES   REMARKS
COLLEGE STN    CLOUDY    75  72  90 E3        29.87R
CALDWELL       NOT AVBL
CROCKETT       NOT AVBL
BRENHAM        NOT AVBL
HUNTSVILLE     PTCLDY    73  70  90 CALM      29.88R
CONROE         MOCLDY    71  70  96 CALM      29.88R
HOUSTON BUSH   PTCLDY    75  73  93 SE3       29.86R
HOUSTON HOBBY  PTCLDY    77  74  90 CALM      29.85S
PERLAND        PTCLDY    78  75  90 CALM      29.87S
WHARTON        NOT AVBL
$$

THE UPPER TEXAS COAST

CITY           SKY/WX    TMP DP  RH WIND       PRES   REMARKS
ORANGE         NOT AVBL
PORT ARTHUR      N/A    N/A N/A N/A MISG      29.87R THUNDER
GALVESTON      LGT RAIN  78  77  96 SW7       29.87S
ANGLETON       HVY RAIN  79  78  97 CALM      29.86S FOG
BAY CITY       NOT AVBL
$$

TEXAS COASTAL BEND, RIO GRANDE PLAINS DEEP SOUTH TEXAS

CITY           SKY/WX    TMP DP  RH WIND       PRES   REMARKS
VICTORIA       MOCLDY    75  73  93 CALM      29.85R
BEEVILLE       NOT AVBL
ROCKPORT       CLEAR     79  76  90 S3        29.83S
PORT ARANSAS   NOT AVBL
PORT LAVACA    NOT AVBL
CORPUS CHRISTI PTCLDY    76  76 100 S5        29.83R
KINGSVILLE NAS NOT AVBL
COTULLA        CLEAR     75  72  90 E5        29.82R
LAREDO         NOT AVBL
BROWNSVILLE    CLEAR     79  77  94 S9        29.84R
PORT ISABEL    CLEAR     80  78  94 S9        29.83R
HEBBRONVILLE   NOT AVBL
MCALLEN        CLEAR     81  76  84 S12       29.83R
WESLACO        NOT AVBL
FALFURRIAS     NOT AVBL
EDINBURG       NOT AVBL
$$




USA.gov is the U.S. government's official web portal to all federal, state and local government web resources and services.